Content
SEND FEEDBACK

Daily
Averages
Monthly
Summary
United States of America

MAURICEVILLE, TEXAS


Home > North America > United States > Texas
Elevation: 6 meters     Latitude: 30 14N     Longitude: 093 44W

WEATHER
 
SELECT A DAY
Number of Records: 109,616;   Date Range: 8/25/05 - 8/29/14
 
SHARE

PRINT THIS DATA

[ ← Previous Day ]
WEATHER ALMANAC - 31 MARCH, 2013
[ Next Day → ]
[ °F ]   °C
Weather ElementAverageHighLow
Temperature19 °C25.2 °C (2:15 pm)15.2 °C (5:15 pm)
Dewpoint17.3 °C19.8 °C (1:55 pm)13.5 °C (3:15 pm)
Humidity90.4 %98 % (5:15 am)67 % (2:35 pm)
Barometer1015.2 hPa1016.6 hPa (12:35 am)1012.5 hPa (7:55 pm)
Wind Speed8.4 km/h27.8 km/h (3:15 pm)
Wind Gust51.8 km/h (3:15 pm)
Weather ElementAverage
Visibility10.9 km
Wind DirectionENE (66.6 °)

Weather ElementTotal
Precipitation23.11 mm
Cooling Degree Days1.9 (Base 18.3)
Growing Degree Days10.2 (Base 10)
Averaged from 68 records on 31 March, 2013
WEATHER CONDITIONS BREAKOUT
WIND DIRECTION BREAKOUT
WEATHER BY HOUR - 31 MARCH, 2013
[ °F ]   °C
Local TimeTemperatureDewpointHumidityBarometerVisibilityWind DirectionWind SpeedGust SpeedPrecipitationEventsConditions
12:35 AM18.6 °C17.7 °C94 %1016.6 hPa11.3 kmCalmOvercast
12:55 AM18.3 °C17.5 °C95 %1016.6 hPa11.3 kmCalmOvercast
1:15 AM18 °C17.3 °C96 %1016.6 hPa11.3 kmCalmOvercast
1:35 AM17.9 °C17.3 °C96 %1016.6 hPa8 kmCalmMostly Cloudy
1:55 AM18.2 °C17.6 °C96 %1016.3 hPa11.3 kmCalmOvercast
2:15 AM18.5 °C17.8 °C96 %1016.3 hPa11.3 kmCalmOvercast
2:35 AM18.7 °C18 °C96 %1016.3 hPa11.3 kmCalmOvercast
2:55 AM18.9 °C18 °C94 %1016.3 hPa11.3 kmCalmOvercast
3:15 AM18.9 °C18 °C94 %1015.9 hPa11.3 kmCalmOvercast
3:35 AM18.8 °C18 °C95 %1015.6 hPa11.3 kmCalmOvercast
3:55 AM18.5 °C17.9 °C96 %1015.6 hPa11.3 kmCalmOvercast
4:15 AM18.2 °C17.5 °C96 %1015.2 hPa11.3 kmCalmOvercast
4:35 AM17.8 °C17.2 °C96 %1015.2 hPa6.4 kmCalmOvercast
4:55 AM17.5 °C17 °C97 %1015.2 hPa0.8 kmCalmFogFog
5:15 AM17.3 °C17 °C98 %1014.9 hPa1.9 kmCalmOvercast
5:35 AM18.2 °C17.9 °C98 %1015.2 hPa8 kmCalmOvercast
5:55 AM18.5 °C18 °C97 %1015.2 hPa8 kmCalmOvercast
6:15 AM18.5 °C18 °C97 %1015.2 hPa8 kmCalmOvercast
6:35 AM18.5 °C18 °C97 %1015.2 hPa6.4 kmCalmOvercast
6:55 AM18.5 °C18 °C97 %1015.2 hPa6.4 kmCalmOvercast
7:15 AM18.6 °C18.1 °C97 %1015.6 hPa3.2 kmCalmOvercast
7:35 AM18.7 °C18.2 °C97 %1015.6 hPa2.9 kmCalmOvercast
7:55 AM18.8 °C18.3 °C97 %1015.6 hPa3.2 kmCalmOvercast
8:15 AM19 °C18.5 °C97 %1015.9 hPa0.3 kmCalmFogFog
8:35 AM19 °C18.6 °C98 %1015.9 hPa0.8 kmCalmFogFog
8:55 AM19.2 °C18.8 °C98 %1015.2 hPa1.3 kmCalmOvercast
9:15 AM19.2 °C18.8 °C98 %1015.2 hPa1.9 kmCalmOvercast
9:35 AM19.7 °C19.2 °C97 %1015.6 hPa11.3 kmCalmOvercast
9:55 AM20.9 °C19.5 °C92 %1014.9 hPa16.1 kmSSE (160°)16.7 km/hOvercast
10:15 AM22 °C19.5 °C86 %1014.9 hPa16.1 kmSouth (180°)18.5 km/hMostly Cloudy
10:35 AM22.6 °C19.5 °C83 %1015.2 hPa16.1 kmSouth (170°)20.4 km/h33.3 km/hMostly Cloudy
10:55 AM22.6 °C19.6 °C83 %1015.2 hPa16.1 kmSouth (180°)16.7 km/hOvercast
11:15 AM23.4 °C19.6 °C79 %1015.2 hPa16.1 kmSouth (190°)25.9 km/hOvercast
11:35 AM22.5 °C19.4 °C83 %1015.2 hPa16.1 kmSouth (190°)22.2 km/h31.5 km/hOvercast
11:55 AM23.7 °C19.6 °C78 %1015.2 hPa16.1 kmSouth (170°)20.4 km/h29.6 km/hOvercast
12:15 PM22.9 °C19.5 °C81 %1015.6 hPa16.1 kmSouth (190°)14.8 km/hOvercast
12:35 PM22.9 °C19.5 °C81 %1015.6 hPa16.1 kmSouth (180°)16.7 km/hOvercast
12:55 PM23.3 °C19.2 °C78 %1015.6 hPa16.1 kmSouth (190°)18.5 km/h31.5 km/hOvercast
1:15 PM23.3 °C19.4 °C79 %1015.2 hPa16.1 kmSouth (180°)14.8 km/hOvercast
1:35 PM24.2 °C19.5 °C75 %1015.2 hPa16.1 kmSouth (180°)16.7 km/hOvercast
1:55 PM24.8 °C19.8 °C74 %1014.6 hPa16.1 kmSSE (160°)18.5 km/h31.5 km/hMostly Cloudy
2:15 PM25.2 °C19.5 °C71 %1014.2 hPa16.1 kmSouth (170°)22.2 km/h35.2 km/hClear
2:35 PM25.2 °C18.8 °C67 %1014.6 hPa16.1 kmSouth (190°)22.2 km/h29.6 km/hScattered Clouds
2:55 PM24.2 °C18.5 °C70 %1014.6 hPa16.1 kmSouth (190°)13 km/hMostly Cloudy
3:15 PM19.1 °C13.5 °C70 %1015.6 hPa16.1 kmNNE (20°)27.8 km/h51.8 km/hOvercast
3:35 PM17.7 °C13.9 °C78 %1015.9 hPa16.1 kmNE (50°)22.2 km/h27.8 km/hRainLight Rain
3:55 PM16 °C14.4 °C90 %1015.6 hPa8 kmNNE (30°)22.2 km/h1.02 mmRain-ThunderstormThunderstorms and Rain
4:15 PM15.6 °C14.5 °C93 %1015.9 hPa11.3 kmNE (40°)5.6 km/h0.51 mmRain-ThunderstormLight Thunderstorms and Rain
4:35 PM15.6 °C14.5 °C93 %1015.6 hPa11.3 kmENE (60°)20.4 km/h1.78 mmRain-ThunderstormLight Thunderstorms and Rain
4:55 PM15.5 °C14.5 °C94 %1015.6 hPa6.4 kmEast (90°)20.4 km/h3.81 mmRain-ThunderstormThunderstorms and Rain
5:15 PM15.2 °C14.4 °C95 %1014.9 hPa11.3 kmESE (110°)18.5 km/h1.27 mmRain-ThunderstormThunderstorms and Rain
5:35 PM15.5 °C14.7 °C95 %1013.2 hPa8 kmESE (120°)24.1 km/h3.05 mmRain-ThunderstormRain
5:55 PM16.1 °C15.2 °C94 %1014.6 hPa11.3 kmCalm3.56 mmRain-ThunderstormThunderstorms and Rain
6:15 PM16.2 °C15.3 °C94 %1014.2 hPa8 kmSSE (160°)5.6 km/h1.52 mmRain-ThunderstormThunderstorms and Rain
6:35 PM16.7 °C16 °C96 %1014.2 hPa16.1 kmSouth (170°)18.5 km/h25.9 km/h2.54 mmRain-ThunderstormLight Thunderstorms and Rain
6:55 PM17 °C16.1 °C94 %1012.9 hPa11.3 kmSSE (160°)22.2 km/h31.5 km/h3.3 mmRainLight Rain
7:15 PM17.3 °C16.1 °C93 %1012.9 hPa16.1 kmSSE (160°)16.7 km/h27.8 km/h0.25 mmScattered Clouds
7:35 PM17.9 °C16.1 °C89 %1012.9 hPa16.1 kmSouth (170°)16.7 km/h0.25 mmScattered Clouds
7:55 PM18 °C16.3 °C90 %1012.5 hPa16.1 kmSSE (150°)18.5 km/h27.8 km/h0.25 mmScattered Clouds
8:15 PM17.8 °C16 °C89 %1012.5 hPa16.1 kmSouth (170°)9.3 km/hScattered Clouds
8:35 PM17.9 °C15.7 °C87 %1012.5 hPa16.1 kmCalmClear
9:15 PM17.9 °C15.7 °C87 %1012.5 hPa16.1 kmCalmClear
9:35 PM17.7 °C15.6 °C87 %1013.2 hPa16.1 kmCalmClear
10:15 PM16.2 °C15.3 °C94 %1014.6 hPa16.1 kmCalmClear
10:35 PM16 °C15.4 °C96 %1014.9 hPa16.1 kmCalmClear
11:15 PM15.5 °C15.1 °C97 %1015.9 hPa1.3 kmCalmOvercast
11:35 PM15.5 °C15.1 °C97 %1015.9 hPa1.6 kmCalmOvercast
11:55 PM15.5 °C15.1 °C97 %1015.9 hPa1.3 kmCalmOvercast
Hourly data recorded from KORG, located 0 kilometers away from Mauriceville, Texas







STORIES FROM OUR PARTNERS